Time,TemperatureF,DewpointF,PressureIn,WindDirection,WindDirectionDegrees,WindSpeedMPH,WindSpeedGustMPH,Humidity,HourlyPrecipIn,Conditions,Clouds,dailyrainin,SolarRadiationWatts/m^2,SoftwareType,DateUTC
2013-03-05 00:12:00,31.0,14.0,-100.00,North,356,0.0,2.0,49,0.00,,,0.00,0.000000,,2013-03-05 05:12:00,
2013-03-05 00:22:00,31.0,14.0,-100.00,North,356,0.0,2.0,49,0.00,,,0.00,0.000000,,2013-03-05 05:22:00,
2013-03-05 00:32:00,31.0,14.0,-100.00,North,356,0.0,2.0,49,0.00,,,0.00,0.000000,,2013-03-05 05:32:00,
2013-03-05 00:42:00,31.0,14.0,-100.00,North,356,0.0,2.0,49,0.00,,,0.00,0.000000,,2013-03-05 05:42:00,
2013-03-05 00:52:00,32.0,16.0,-100.00,NE,34,0.0,3.0,52,0.00,,,0.00,0.000000,,2013-03-05 05:52:00,
2013-03-05 01:22:00,32.0,16.0,-100.00,NE,34,0.0,3.0,52,0.00,,,0.00,0.000000,,2013-03-05 06:22:00,
2013-03-05 01:32:00,32.0,16.0,-100.00,NE,34,0.0,3.0,52,0.00,,,0.00,0.000000,,2013-03-05 06:32:00,
2013-03-05 01:42:00,32.0,16.0,-100.00,NE,34,0.0,3.0,52,0.00,,,0.00,0.000000,,2013-03-05 06:42:00,
2013-03-05 02:11:00,32.0,17.0,-100.00,NE,52,0.0,3.0,54,0.00,,,0.00,0.000000,,2013-03-05 07:11:00,
2013-03-05 02:22:00,32.0,17.0,-100.00,NE,52,0.0,3.0,54,0.00,,,0.00,0.000000,,2013-03-05 07:22:00,
2013-03-05 02:32:00,32.0,17.0,-100.00,NE,52,0.0,3.0,54,0.00,,,0.00,0.000000,,2013-03-05 07:32:00,
2013-03-05 02:42:00,32.0,17.0,-100.00,NE,52,0.0,3.0,54,0.00,,,0.00,0.000000,,2013-03-05 07:42:00,
2013-03-05 02:51:00,32.0,17.0,-100.00,NE,52,0.0,3.0,54,0.00,,,0.00,0.000000,,2013-03-05 07:51:00,
2013-03-05 02:52:00,33.0,14.0,-100.00,NE,56,0.0,3.0,46,0.00,,,0.00,0.000000,,2013-03-05 07:52:00,
2013-03-05 03:21:00,33.0,14.0,-100.00,NE,56,0.0,3.0,46,0.00,,,0.00,0.000000,,2013-03-05 08:21:00,
2013-03-05 03:32:00,33.0,14.0,-100.00,NE,56,0.0,3.0,46,0.00,,,0.00,0.000000,,2013-03-05 08:32:00,
2013-03-05 03:42:00,33.0,14.0,-100.00,NE,56,0.0,3.0,46,0.00,,,0.00,0.000000,,2013-03-05 08:42:00,
2013-03-05 03:52:00,34.0,18.0,-100.00,NE,44,0.0,2.0,52,0.00,,,0.00,0.000000,,2013-03-05 08:52:00,
2013-03-05 04:11:00,34.0,18.0,-100.00,NE,44,0.0,2.0,52,0.00,,,0.00,0.000000,,2013-03-05 09:11:00,
2013-03-05 04:21:00,34.0,18.0,-100.00,NE,44,0.0,2.0,52,0.00,,,0.00,0.000000,,2013-03-05 09:21:00,
2013-03-05 04:32:00,34.0,18.0,-100.00,NE,44,0.0,2.0,52,0.00,,,0.00,0.000000,,2013-03-05 09:32:00,
2013-03-05 04:43:00,34.0,18.0,-100.00,NE,44,0.0,2.0,52,0.00,,,0.00,0.000000,,2013-03-05 09:43:00,
2013-03-05 04:52:00,35.0,18.0,-100.00,ENE,64,0.0,4.0,49,0.00,,,0.00,0.000000,,2013-03-05 09:52:00,
2013-03-05 05:11:00,35.0,18.0,-100.00,ENE,64,0.0,4.0,49,0.00,,,0.00,0.000000,,2013-03-05 10:11:00,
2013-03-05 05:22:00,35.0,18.0,-100.00,ENE,64,0.0,4.0,49,0.00,,,0.00,0.000000,,2013-03-05 10:22:00,
2013-03-05 05:32:00,35.0,18.0,-100.00,ENE,64,0.0,4.0,49,0.00,,,0.00,0.000000,,2013-03-05 10:32:00,
2013-03-05 05:42:00,35.0,18.0,-100.00,ENE,64,0.0,4.0,49,0.00,,,0.00,0.000000,,2013-03-05 10:42:00,
2013-03-05 05:52:00,37.0,21.0,-100.00,SSW,210,0.0,5.0,52,0.00,,,0.00,0.000000,,2013-03-05 10:52:00,
2013-03-05 06:11:00,37.0,21.0,-100.00,SSW,210,0.0,5.0,52,0.00,,,0.00,0.000000,,2013-03-05 11:11:00,
2013-03-05 06:22:00,37.0,21.0,-100.00,SSW,210,0.0,5.0,52,0.00,,,0.00,0.000000,,2013-03-05 11:22:00,
2013-03-05 06:32:00,37.0,21.0,-100.00,SSW,210,0.0,5.0,52,0.00,,,0.00,0.000000,,2013-03-05 11:32:00,
2013-03-05 06:42:00,37.0,21.0,-100.00,SSW,210,0.0,5.0,52,0.00,,,0.00,0.000000,,2013-03-05 11:42:00,
2013-03-05 06:52:00,35.0,22.0,-100.00,SW,229,1.0,3.0,59,0.00,,,0.00,1.000000,,2013-03-05 11:52:00,
2013-03-05 07:22:00,35.0,22.0,-100.00,SW,229,1.0,3.0,59,0.00,,,0.00,1.000000,,2013-03-05 12:22:00,
2013-03-05 07:32:00,35.0,22.0,-100.00,SW,229,1.0,3.0,59,0.00,,,0.00,1.000000,,2013-03-05 12:32:00,
2013-03-05 07:42:00,35.0,22.0,-100.00,SW,229,1.0,3.0,59,0.00,,,0.00,1.000000,,2013-03-05 12:42:00,
2013-03-05 07:52:00,39.0,24.0,-100.00,SW,230,1.0,3.0,54,0.00,,,0.00,50.000000,,2013-03-05 12:52:00,
2013-03-05 08:22:00,39.0,24.0,-100.00,SW,230,1.0,3.0,54,0.00,,,0.00,50.000000,,2013-03-05 13:22:00,
2013-03-05 08:32:00,39.0,24.0,-100.00,SW,230,1.0,3.0,54,0.00,,,0.00,50.000000,,2013-03-05 13:32:00,
2013-03-05 08:42:00,39.0,24.0,-100.00,SW,230,1.0,3.0,54,0.00,,,0.00,50.000000,,2013-03-05 13:42:00,
2013-03-05 08:52:00,42.0,21.0,-100.00,WSW,253,2.0,6.0,42,0.00,,,0.00,125.000000,,2013-03-05 13:52:00,
2013-03-05 09:11:00,42.0,21.0,-100.00,WSW,253,2.0,6.0,42,0.00,,,0.00,125.000000,,2013-03-05 14:11:00,
2013-03-05 09:22:00,42.0,21.0,-100.00,WSW,253,2.0,6.0,42,0.00,,,0.00,125.000000,,2013-03-05 14:22:00,
2013-03-05 09:32:00,42.0,21.0,-100.00,WSW,253,2.0,6.0,42,0.00,,,0.00,125.000000,,2013-03-05 14:32:00,
2013-03-05 09:42:00,42.0,21.0,-100.00,WSW,253,2.0,6.0,42,0.00,,,0.00,125.000000,,2013-03-05 14:42:00,
2013-03-05 09:52:00,51.0,21.0,-100.00,WSW,244,2.0,7.0,30,0.00,,,0.00,401.000000,,2013-03-05 14:52:00,
2013-03-05 10:11:00,51.0,21.0,-100.00,WSW,244,2.0,7.0,30,0.00,,,0.00,401.000000,,2013-03-05 15:11:00,
2013-03-05 10:22:00,51.0,21.0,-100.00,WSW,244,2.0,7.0,30,0.00,,,0.00,401.000000,,2013-03-05 15:22:00,
2013-03-05 10:32:00,51.0,21.0,-100.00,WSW,244,2.0,7.0,30,0.00,,,0.00,401.000000,,2013-03-05 15:32:00,
2013-03-05 10:42:00,51.0,21.0,-100.00,WSW,244,2.0,7.0,30,0.00,,,0.00,401.000000,,2013-03-05 15:42:00,
2013-03-05 10:52:00,52.0,19.0,-100.00,West,270,4.0,9.0,27,0.00,,,0.00,451.000000,,2013-03-05 15:52:00,
2013-03-05 11:22:00,52.0,19.0,-100.00,West,270,4.0,9.0,27,0.00,,,0.00,451.000000,,2013-03-05 16:22:00,
2013-03-05 11:32:00,52.0,19.0,-100.00,West,270,4.0,9.0,27,0.00,,,0.00,451.000000,,2013-03-05 16:32:00,
2013-03-05 11:42:00,52.0,19.0,-100.00,West,270,4.0,9.0,27,0.00,,,0.00,451.000000,,2013-03-05 16:42:00,
2013-03-05 11:52:00,52.0,22.0,-100.00,WNW,297,3.0,10.0,31,0.00,,,0.00,293.000000,,2013-03-05 16:52:00,
2013-03-05 12:22:00,52.0,22.0,-100.00,WNW,297,3.0,10.0,31,0.00,,,0.00,293.000000,,2013-03-05 17:22:00,
2013-03-05 12:32:00,52.0,22.0,-100.00,WNW,297,3.0,10.0,31,0.00,,,0.00,293.000000,,2013-03-05 17:32:00,
2013-03-05 12:42:00,52.0,22.0,-100.00,WNW,297,3.0,10.0,31,0.00,,,0.00,293.000000,,2013-03-05 17:42:00,
2013-03-05 12:52:00,51.0,24.0,-100.00,West,278,2.0,8.0,34,0.00,,,0.00,191.000000,,2013-03-05 17:52:00,
2013-03-05 13:11:00,51.0,24.0,-100.00,West,278,2.0,8.0,34,0.00,,,0.00,191.000000,,2013-03-05 18:11:00,
2013-03-05 13:22:00,51.0,24.0,-100.00,West,278,2.0,8.0,34,0.00,,,0.00,191.000000,,2013-03-05 18:22:00,
2013-03-05 13:32:00,51.0,24.0,-100.00,West,278,2.0,8.0,34,0.00,,,0.00,191.000000,,2013-03-05 18:32:00,
2013-03-05 13:42:00,51.0,24.0,-100.00,West,278,2.0,8.0,34,0.00,,,0.00,191.000000,,2013-03-05 18:42:00,
2013-03-05 13:52:00,50.0,35.0,-100.00,WNW,282,0.0,5.0,56,0.00,,,0.00,177.000000,,2013-03-05 18:52:00,
2013-03-05 14:11:00,50.0,35.0,-100.00,WNW,282,0.0,5.0,56,0.00,,,0.00,177.000000,,2013-03-05 19:11:00,
2013-03-05 14:22:00,50.0,35.0,-100.00,WNW,282,0.0,5.0,56,0.00,,,0.00,177.000000,,2013-03-05 19:22:00,
2013-03-05 14:32:00,50.0,35.0,-100.00,WNW,282,0.0,5.0,56,0.00,,,0.00,177.000000,,2013-03-05 19:32:00,
2013-03-05 14:42:00,50.0,35.0,-100.00,WNW,282,0.0,5.0,56,0.00,,,0.00,177.000000,,2013-03-05 19:42:00,
2013-03-05 14:52:00,44.0,42.0,-100.00,NW,322,0.0,13.0,91,0.06,,,0.06,56.000000,,2013-03-05 19:52:00,
2013-03-05 15:22:00,44.0,42.0,-100.00,NW,322,0.0,13.0,91,0.06,,,0.06,56.000000,,2013-03-05 20:22:00,
2013-03-05 15:32:00,44.0,42.0,-100.00,NW,322,0.0,13.0,91,0.06,,,0.06,56.000000,,2013-03-05 20:32:00,
2013-03-05 15:42:00,44.0,42.0,-100.00,NW,322,0.0,13.0,91,0.06,,,0.06,56.000000,,2013-03-05 20:42:00,
2013-03-05 15:52:00,43.0,42.0,-100.00,SW,231,1.0,5.0,98,0.05,,,0.11,43.000000,,2013-03-05 20:52:00,
2013-03-05 16:11:00,43.0,42.0,-100.00,SW,231,1.0,5.0,98,0.05,,,0.11,43.000000,,2013-03-05 21:11:00,
2013-03-05 16:22:00,43.0,42.0,-100.00,SW,231,1.0,5.0,98,0.05,,,0.11,43.000000,,2013-03-05 21:22:00,
2013-03-05 16:32:00,43.0,42.0,-100.00,SW,231,1.0,5.0,98,0.05,,,0.11,43.000000,,2013-03-05 21:32:00,
2013-03-05 16:42:00,43.0,42.0,-100.00,SW,231,1.0,5.0,98,0.05,,,0.11,43.000000,,2013-03-05 21:42:00,
2013-03-05 16:52:00,44.0,43.0,-100.00,WSW,254,2.0,6.0,98,0.05,,,0.16,12.000000,,2013-03-05 21:52:00,
2013-03-05 17:22:00,44.0,43.0,-100.00,WSW,254,2.0,6.0,98,0.05,,,0.16,12.000000,,2013-03-05 22:22:00,
2013-03-05 17:32:00,44.0,43.0,-100.00,WSW,254,2.0,6.0,98,0.05,,,0.16,12.000000,,2013-03-05 22:32:00,
2013-03-05 17:42:00,44.0,43.0,-100.00,WSW,254,2.0,6.0,98,0.05,,,0.16,12.000000,,2013-03-05 22:42:00,
2013-03-05 17:52:00,44.0,43.0,-100.00,WSW,244,2.0,7.0,98,0.11,,,0.27,5.000000,,2013-03-05 22:52:00,
2013-03-05 18:22:00,44.0,43.0,-100.00,WSW,244,2.0,7.0,98,0.11,,,0.27,5.000000,,2013-03-05 23:22:00,
2013-03-05 18:32:00,44.0,43.0,-100.00,WSW,244,2.0,7.0,98,0.11,,,0.27,5.000000,,2013-03-05 23:32:00,
2013-03-05 18:42:00,44.0,43.0,-100.00,WSW,244,2.0,7.0,98,0.11,,,0.27,5.000000,,2013-03-05 23:42:00,
2013-03-05 18:52:00,44.0,43.0,-100.00,WSW,245,4.0,8.0,98,0.03,,,0.30,0.000000,,2013-03-05 23:52:00,
2013-03-05 19:11:00,44.0,43.0,-100.00,WSW,245,4.0,8.0,98,0.03,,,0.30,0.000000,,2013-03-06 00:11:00,
2013-03-05 19:22:00,44.0,43.0,-100.00,WSW,245,4.0,8.0,98,0.03,,,0.30,0.000000,,2013-03-06 00:22:00,
2013-03-05 19:32:00,44.0,43.0,-100.00,WSW,245,4.0,8.0,98,0.03,,,0.30,0.000000,,2013-03-06 00:32:00,
2013-03-05 19:42:00,44.0,43.0,-100.00,WSW,245,4.0,8.0,98,0.03,,,0.30,0.000000,,2013-03-06 00:42:00,
2013-03-05 20:22:00,41.0,40.0,-100.00,WSW,251,5.0,10.0,98,0.01,,,0.31,0.000000,,2013-03-06 01:22:00,
2013-03-05 20:32:00,41.0,40.0,-100.00,WSW,251,5.0,10.0,98,0.01,,,0.31,0.000000,,2013-03-06 01:32:00,
2013-03-05 20:42:00,41.0,40.0,-100.00,WSW,251,5.0,10.0,98,0.01,,,0.31,0.000000,,2013-03-06 01:42:00,
2013-03-05 20:51:00,41.0,40.0,-100.00,WSW,251,5.0,10.0,98,0.01,,,0.31,0.000000,,2013-03-06 01:51:00,
2013-03-05 20:52:00,40.0,39.0,-100.00,WSW,237,5.0,14.0,98,0.00,,,0.31,0.000000,,2013-03-06 01:52:00,
2013-03-05 21:11:00,40.0,39.0,-100.00,WSW,237,5.0,14.0,98,0.00,,,0.31,0.000000,,2013-03-06 02:11:00,
2013-03-05 21:22:00,40.0,39.0,-100.00,WSW,237,5.0,14.0,98,0.00,,,0.31,0.000000,,2013-03-06 02:22:00,
2013-03-05 21:32:00,40.0,39.0,-100.00,WSW,237,5.0,14.0,98,0.00,,,0.31,0.000000,,2013-03-06 02:32:00,
2013-03-05 21:42:00,40.0,39.0,-100.00,WSW,237,5.0,14.0,98,0.00,,,0.31,0.000000,,2013-03-06 02:42:00,
2013-03-05 21:52:00,39.0,37.0,-100.00,WSW,243,6.0,14.0,94,0.01,,,0.32,0.000000,,2013-03-06 02:52:00,
2013-03-05 22:11:00,39.0,37.0,-100.00,WSW,243,6.0,14.0,94,0.01,,,0.32,0.000000,,2013-03-06 03:11:00,
2013-03-05 22:22:00,39.0,37.0,-100.00,WSW,243,6.0,14.0,94,0.01,,,0.32,0.000000,,2013-03-06 03:22:00,
2013-03-05 22:32:00,39.0,37.0,-100.00,WSW,243,6.0,14.0,94,0.01,,,0.32,0.000000,,2013-03-06 03:32:00,
2013-03-05 22:42:00,39.0,37.0,-100.00,WSW,243,6.0,14.0,94,0.01,,,0.32,0.000000,,2013-03-06 03:42:00,
2013-03-05 22:52:00,36.0,35.0,-100.00,SSW,210,4.0,14.0,98,0.08,,,0.40,0.000000,,2013-03-06 03:52:00,
2013-03-05 23:22:00,36.0,35.0,-100.00,SSW,210,4.0,14.0,98,0.08,,,0.40,0.000000,,2013-03-06 04:22:00,
2013-03-05 23:32:00,36.0,35.0,-100.00,SSW,210,4.0,14.0,98,0.08,,,0.40,0.000000,,2013-03-06 04:32:00,
2013-03-05 23:42:00,36.0,35.0,-100.00,SSW,210,4.0,14.0,98,0.08,,,0.40,0.000000,,2013-03-06 04:42:00,
2013-03-05 23:52:00,37.0,36.0,-100.00,SSW,209,5.0,13.0,98,0.18,,,0.58,0.000000,,2013-03-06 04:52:00,